Weather History for Tubuai, French Polynesia

Change the Weather History Date:

Friday, January 18, 2013

  Actual Average Record
Temperature  
Mean Temperature 76 °F -  
Max Temperature 78 °F - - ()
Min Temperature 73 °F - - ()
Cooling Degree Days 10    
Growing Degree Days 26 (Base 50)    
Moisture  
Dew Point 72 °F    
Average Humidity 81    
Maximum Humidity 92    
Minimum Humidity 73    
Precipitation  
Precipitation 0.39 in - - ()
Sea Level Pressure  
Sea Level Pressure 29.84 in    
Wind  
Wind Speed 23 mph ()    
Max Wind Speed 63 mph    
Max Gust Speed -    
T = Trace of Precipitation, MM = Missing Value Source: Averaged Metar Reports

Daily Weather History Graph

Daily Weather History Graph

Search for Another Location

Airport:

Trip Planner

Search our weather history database for the weather conditions in past years. The results will help you decide how hot, cold, wet, or windy it might be!

Date:

Astronomy

Jan. 18, 2013 Rise Set
Actual Time 5:27 AM TAHT 6:49 PM TAHT
Civil Twilight 5:02 AM TAHT 7:13 PM TAHT
Nautical Twilight 4:33 AM TAHT 7:43 PM TAHT
Astronomical Twilight 4:03 AM TAHT 8:13 PM TAHT
Moon 12:09 PM TAHT (1/18) 11:40 PM TAHT (1/18)
Length of Visible Light 14h 11m
Length of Day
13h 21m
Waxing Crescent, 49% of the Moon is Illuminated
Jan 18
Waxing Crescent
Jan 18
First Quarter
Jan 26
Full
Feb 3
Last Quarter
Feb 9
New

Hourly Weather History & Observations

Time (TAHT) Temp. Dew Point Humidity Pressure Visibility Wind Dir Wind Speed Gust Speed Precip Events Conditions
12:00 AM 77 °F 73 °F 83% 29.86 in - ENE 18.4 mph - -  
1:00 AM 77 °F 73 °F 85% 29.83 in - NE 18.4 mph - -  
2:00 AM 77 °F 73 °F 85% 29.81 in - ENE 35.8 mph - -  
3:00 AM 78 °F 73 °F 82% 29.81 in - ENE 17.3 mph - -  
4:00 AM 78 °F 73 °F 82% 29.81 in - ENE 17.3 mph - -  
5:00 AM 78 °F 73 °F 82% 29.81 in - ENE 35.8 mph - -  
6:00 AM 78 °F 73 °F 80% 29.83 in - NE 21.9 mph - -  
7:00 AM 78 °F 72 °F 77% 29.85 in - NE 24.2 mph - -  
8:00 AM 73 °F 71 °F 92% 29.87 in - NNE 53.7 mph - -  
9:00 AM 74 °F 70 °F 83% 29.86 in - NNE 28.8 mph - -  
10:00 AM 76 °F 71 °F 82% 29.87 in - NE 24.2 mph - -  
11:00 AM 77 °F 71 °F 77% 29.86 in - NNE 62.6 mph - -  
12:00 PM 78 °F 72 °F 78% 29.85 in - NNE 24.2 mph - -  
1:00 PM 78 °F 71 °F 74% 29.84 in - NE 23.0 mph - -  
2:00 PM 78 °F 71 °F 75% 29.83 in - ENE 17.3 mph - -  
3:00 PM 78 °F 72 °F 75% 29.82 in - ENE 17.3 mph - -  
4:00 PM 77 °F 72 °F 82% 29.80 in - ENE 16.1 mph - -  
5:00 PM 77 °F 73 °F 83% 29.81 in - ENE 35.8 mph - -  
6:00 PM 77 °F 72 °F 79% 29.83 in - ENE 19.6 mph - -  
7:00 PM 74 °F 71 °F 88% 29.85 in - NE 27.6 mph - -  
8:00 PM 76 °F 70 °F 78% 29.86 in - NE 23.0 mph - -  
10:00 PM 77 °F 71 °F 78% 29.88 in - NE 23.0 mph - -  
11:00 PM 77 °F 70 °F 73% 29.87 in - NE 49.2 mph - -